2021-08-25 00:02:50 r, 19.75m,0000000001Hz,0000435784c,0000000.946s, 026.1C,00002191
2021-08-25 00:12:49 r, 19.70m,0000000002Hz,0000412609c,0000000.895s, 025.7C,00002191
2021-08-25 00:22:50 r, 18.83m,0000000002Hz,0000186446c,0000000.405s, 025.7C,00002191
2021-08-25 00:32:50 r, 18.17m,0000000005Hz,0000101779c,0000000.221s, 025.4C,00002191
2021-08-25 00:42:49 r, 19.56m,0000000001Hz,0000362905c,0000000.788s, 025.4C,00002191
2021-08-25 00:52:49 r, 19.57m,0000000001Hz,0000367415c,0000000.797s, 025.4C,00002191
2021-08-25 01:02:51 r, 19.51m,0000000001Hz,0000349414c,0000000.758s, 025.1C,00002191
2021-08-25 01:12:49 r, 19.55m,0000000001Hz,0000359065c,0000000.779s, 025.1C,00002191
2021-08-25 01:22:49 r, 19.53m,0000000001Hz,0000356257c,0000000.773s, 024.8C,00002191
2021-08-25 01:32:50 r, 19.50m,0000000002Hz,0000344617c,0000000.748s, 024.8C,00002191
2021-08-25 01:42:49 r, 19.43m,0000000001Hz,0000323524c,0000000.702s, 024.8C,00002191
2021-08-25 01:52:49 r, 19.48m,0000000002Hz,0000339709c,0000000.737s, 024.4C,00002191
2021-08-25 02:02:50 r, 19.50m,0000000001Hz,0000344636c,0000000.748s, 024.4C,00002191
2021-08-25 02:12:49 r, 19.49m,0000000001Hz,0000340692c,0000000.739s, 024.4C,00002191
2021-08-25 02:22:49 r, 19.45m,0000000001Hz,0000328422c,0000000.713s, 024.4C,00002191
2021-08-25 02:32:50 r, 19.43m,0000000001Hz,0000324373c,0000000.704s, 024.1C,00002191
2021-08-25 02:42:49 r, 19.41m,0000000001Hz,0000317709c,0000000.689s, 024.1C,00002191
2021-08-25 02:52:49 r, 19.44m,0000000001Hz,0000326219c,0000000.708s, 024.1C,00002191
2021-08-25 03:02:51 r, 19.43m,0000000001Hz,0000322563c,0000000.700s, 023.8C,00002191
2021-08-25 03:12:49 r, 19.43m,0000000002Hz,0000322455c,0000000.700s, 023.8C,00002191
2021-08-25 03:22:49 r, 19.43m,0000000001Hz,0000321605c,0000000.698s, 023.5C,00002191
2021-08-25 03:32:50 r, 19.30m,0000000002Hz,0000287964c,0000000.625s, 023.5C,00002191
2021-08-25 03:42:49 r, 18.86m,0000000002Hz,0000190440c,0000000.413s, 023.2C,00002191
2021-08-25 03:52:49 r, 19.40m,0000000002Hz,0000313961c,0000000.681s, 023.2C,00002191
2021-08-25 04:02:50 r, 18.62m,0000000003Hz,0000152933c,0000000.332s, 023.2C,00002191
2021-08-25 04:12:49 r, 19.19m,0000000002Hz,0000258203c,0000000.560s, 023.2C,00002191
2021-08-25 04:22:49 r, 18.74m,0000000003Hz,0000171176c,0000000.371s, 023.2C,00002191
2021-08-25 04:32:50 r, 18.43m,0000000003Hz,0000128917c,0000000.280s, 023.2C,00002191
2021-08-25 04:42:49 r, 18.38m,0000000004Hz,0000122634c,0000000.266s, 023.2C,00002191
2021-08-25 04:52:49 r, 18.53m,0000000004Hz,0000141608c,0000000.307s, 023.2C,00002191
2021-08-25 05:02:51 r, 18.63m,0000000003Hz,0000155260c,0000000.337s, 023.2C,00002191
2021-08-25 05:12:50 r, 17.72m,0000000007Hz,0000067309c,0000000.146s, 023.2C,00002191
2021-08-25 05:22:49 r, 17.53m,0000000008Hz,0000056305c,0000000.122s, 023.5C,00002191
2021-08-25 05:32:51 r, 17.18m,0000000011Hz,0000040934c,0000000.089s, 023.8C,00002191
2021-08-25 05:42:50 r, 16.30m,0000000026Hz,0000018254c,0000000.040s, 024.1C,00002191
2021-08-25 05:52:49 r, 14.72m,0000000107Hz,0000004270c,0000000.009s, 024.1C,00002191
2021-08-25 06:02:50 r, 12.81m,0000000639Hz,0000000000c,0000000.000s, 024.1C,00002191
2021-08-25 06:12:50 r, 11.09m,0000003104Hz,0000000000c,0000000.000s, 024.1C,00002191
2021-08-25 06:22:49 r, 09.20m,0000017673Hz,0000000000c,0000000.000s, 024.4C,00002191
2021-08-25 06:32:50 r, 08.03m,0000051826Hz,0000000000c,0000000.000s, 024.4C,00002191
2021-08-25 06:42:51 r, 07.08m,0000124172Hz,0000000000c,0000000.000s, 024.4C,00002191
2021-08-25 06:52:49 r, 06.34m,0000245383Hz,0000000000c,0000000.000s, 024.4C,00002191
2021-08-25 07:02:50 r, 00.00m,0000538365Hz,0000000000c,0000000.000s, 024.8C,00002191
2021-08-25 07:12:50 r, 00.00m,0000597367Hz,0000000000c,0000000.000s, 024.8C,00002191
2021-08-25 07:22:49 r, 00.00m,0000597285Hz,0000000000c,0000000.000s, 025.1C,00002191
2021-08-25 07:32:51 r, 00.00m,0000597294Hz,0000000000c,0000000.000s, 025.1C,00002191
2021-08-25 07:42:50 r, 00.00m,0000597268Hz,0000000000c,0000000.000s, 025.4C,00002191
2021-08-25 07:52:49 r, 00.00m,0000597257Hz,0000000000c,0000000.000s, 025.7C,00002191
2021-08-25 08:02:50 r, 00.00m,0000597169Hz,0000000000c,0000000.000s, 026.1C,00002191
2021-08-25 08:12:51 r, 00.00m,0000597180Hz,0000000000c,0000000.000s, 026.7C,00002191
2021-08-25 08:22:49 r, 00.00m,0000597053Hz,0000000000c,0000000.000s, 027.0C,00002191
2021-08-25 08:32:51 r, 00.00m,0000596972Hz,0000000000c,0000000.000s, 027.3C,00002191
2021-08-25 08:42:50 r, 00.00m,0000596924Hz,0000000000c,0000000.000s, 027.3C,00002191
2021-08-25 08:52:49 r, 00.00m,0000596853Hz,0000000000c,0000000.000s, 028.0C,00002191
2021-08-25 09:02:50 r, 00.00m,0000596798Hz,0000000000c,0000000.000s, 028.6C,00002191
2021-08-25 09:12:52 r, 00.00m,0000596710Hz,0000000000c,0000000.000s, 029.0C,00002191
2021-08-25 09:22:49 r, 00.00m,0000596648Hz,0000000000c,0000000.000s, 029.6C,00002191
2021-08-25 09:32:51 r, 00.00m,0000596681Hz,0000000000c,0000000.000s, 029.9C,00002191
2021-08-25 09:42:50 r, 00.00m,0000596709Hz,0000000000c,0000000.000s, 029.9C,00002191
2021-08-25 09:52:49 r, 00.00m,0000596617Hz,0000000000c,0000000.000s, 029.9C,00002191
2021-08-25 10:02:52 r, 00.00m,0000596480Hz,0000000000c,0000000.000s, 030.6C,00002191
2021-08-25 10:12:50 r, 00.00m,0000596529Hz,0000000000c,0000000.000s, 030.6C,00002191
2021-08-25 10:22:49 r, 00.00m,0000596403Hz,0000000000c,0000000.000s, 031.2C,00002191
2021-08-25 10:32:50 r, 00.00m,0000596484Hz,0000000000c,0000000.000s, 031.2C,00002191
2021-08-25 10:42:51 r, 00.00m,0000596437Hz,0000000000c,0000000.000s, 031.9C,00002191
2021-08-25 10:52:49 r, 00.00m,0000596217Hz,0000000000c,0000000.000s, 032.5C,00002191
2021-08-25 11:02:51 r, 00.00m,0000595875Hz,0000000000c,0000000.000s, 034.1C,00002191
2021-08-25 11:12:50 r, 00.00m,0000595744Hz,0000000000c,0000000.000s, 035.4C,00002191
2021-08-25 11:22:49 r, 00.00m,0000595543Hz,0000000000c,0000000.000s, 037.0C,00002191
2021-08-25 11:32:52 r, 00.00m,0000595743Hz,0000000000c,0000000.000s, 036.4C,00002191
2021-08-25 11:42:50 r, 00.00m,0000596035Hz,0000000000c,0000000.000s, 034.4C,00002191
2021-08-25 11:52:49 r, 00.00m,0000596078Hz,0000000000c,0000000.000s, 034.1C,00002191
2021-08-25 12:02:52 r, 00.00m,0000595952Hz,0000000000c,0000000.000s, 034.4C,00002191
2021-08-25 12:12:50 r, 00.00m,0000596191Hz,0000000000c,0000000.000s, 033.8C,00002191
2021-08-25 12:22:49 r, 00.00m,0000596253Hz,0000000000c,0000000.000s, 032.5C,00002191
2021-08-25 12:32:50 r, 00.00m,0000596274Hz,0000000000c,0000000.000s, 032.2C,00002191
2021-08-25 12:42:51 r, 00.00m,0000596296Hz,0000000000c,0000000.000s, 032.5C,00002191
2021-08-25 12:52:49 r, 00.00m,0000596372Hz,0000000000c,0000000.000s, 032.5C,00002191
2021-08-25 13:02:51 r, 00.00m,0000596145Hz,0000000000c,0000000.000s, 033.5C,00002191
2021-08-25 13:12:50 r, 00.00m,0000595888Hz,0000000000c,0000000.000s, 035.1C,00002191
2021-08-25 13:22:49 r, 00.00m,0000595311Hz,0000000000c,0000000.000s, 038.0C,00002191
2021-08-25 13:32:50 r, 00.00m,0000594823Hz,0000000000c,0000000.000s, 040.9C,00002191
2021-08-25 13:42:52 r, 00.00m,0000594623Hz,0000000000c,0000000.000s, 042.8C,00002191
2021-08-25 13:52:49 r, 00.00m,0000594495Hz,0000000000c,0000000.000s, 044.1C,00002191
2021-08-25 14:02:52 r, 00.00m,0000594315Hz,0000000000c,0000000.000s, 045.4C,00002191
2021-08-25 14:12:50 r, 00.00m,0000594241Hz,0000000000c,0000000.000s, 045.4C,00002191
2021-08-25 14:22:49 r, 00.00m,0000594322Hz,0000000000c,0000000.000s, 045.1C,00002191
2021-08-25 14:32:52 r, 00.00m,0000594293Hz,0000000000c,0000000.000s, 045.1C,00002191
2021-08-25 14:42:50 r, 00.00m,0000594364Hz,0000000000c,0000000.000s, 044.8C,00002191
2021-08-25 14:52:49 r, 00.00m,0000594179Hz,0000000000c,0000000.000s, 045.1C,00002191
2021-08-25 15:02:50 r, 00.00m,0000594281Hz,0000000000c,0000000.000s, 045.1C,00002191
2021-08-25 15:12:52 r, 00.00m,0000594281Hz,0000000000c,0000000.000s, 045.1C,00002191
2021-08-25 15:22:49 r, 00.00m,0000594277Hz,0000000000c,0000000.000s, 045.1C,00002191
2021-08-25 15:32:51 r, 00.00m,0000594284Hz,0000000000c,0000000.000s, 044.8C,00002191
2021-08-25 15:42:50 r, 00.00m,0000594354Hz,0000000000c,0000000.000s, 044.4C,00002191
2021-08-25 15:52:49 r, 00.00m,0000594348Hz,0000000000c,0000000.000s, 044.1C,00002191
2021-08-25 16:02:52 r, 00.00m,0000594406Hz,0000000000c,0000000.000s, 043.8C,00002191
2021-08-25 16:12:50 r, 00.00m,0000594422Hz,0000000000c,0000000.000s, 043.5C,00002191
2021-08-25 16:22:49 r, 00.00m,0000594551Hz,0000000000c,0000000.000s, 043.1C,00002191
2021-08-25 16:32:52 r, 00.00m,0000594553Hz,0000000000c,0000000.000s, 043.1C,00002191
2021-08-25 16:42:50 r, 00.00m,0000594703Hz,0000000000c,0000000.000s, 042.2C,00002191
2021-08-25 16:52:49 r, 00.00m,0000594747Hz,0000000000c,0000000.000s, 041.9C,00002191
2021-08-25 17:02:50 r, 00.00m,0000594804Hz,0000000000c,0000000.000s, 041.5C,00002191
2021-08-25 17:12:51 r, 00.00m,0000594890Hz,0000000000c,0000000.000s, 040.9C,00002191
2021-08-25 17:22:49 r, 00.00m,0000595040Hz,0000000000c,0000000.000s, 040.2C,00002191
2021-08-25 17:32:49 r, 00.00m,0000595099Hz,0000000000c,0000000.000s, 039.6C,00002191
2021-08-25 17:42:52 r, 00.00m,0000595153Hz,0000000000c,0000000.000s, 039.0C,00002191
2021-08-25 17:52:49 r, 00.00m,0000595237Hz,0000000000c,0000000.000s, 038.3C,00002191
2021-08-25 18:02:49 r, 00.00m,0000595394Hz,0000000000c,0000000.000s, 037.7C,00002191
2021-08-25 18:12:50 r, 00.00m,0000595455Hz,0000000000c,0000000.000s, 037.0C,00002191
2021-08-25 18:22:49 r, 00.00m,0000595524Hz,0000000000c,0000000.000s, 036.4C,00002191
2021-08-25 18:32:49 r, 00.00m,0000595631Hz,0000000000c,0000000.000s, 035.7C,00002191
2021-08-25 18:42:50 r, 00.00m,0000595595Hz,0000000000c,0000000.000s, 035.4C,00002191
2021-08-25 18:52:49 r, 00.00m,0000595628Hz,0000000000c,0000000.000s, 035.1C,00002191
2021-08-25 19:02:50 r, 00.00m,0000595736Hz,0000000000c,0000000.000s, 034.8C,00002191
2021-08-25 19:12:51 r, 00.00m,0000595889Hz,0000000000c,0000000.000s, 034.8C,00002191
2021-08-25 19:22:49 r, 00.00m,0000595882Hz,0000000000c,0000000.000s, 034.1C,00002191
2021-08-25 19:32:49 r, 00.00m,0000560879Hz,0000000000c,0000000.000s, 033.1C,00002191
2021-08-25 19:42:52 r, 00.00m,0000572222Hz,0000000000c,0000000.000s, 031.9C,00002191
2021-08-25 19:52:49 r, 00.00m,0000564196Hz,0000000000c,0000000.000s, 030.9C,00002191
2021-08-25 20:02:49 r, 06.17m,0000289410Hz,0000000000c,0000000.000s, 029.9C,00002191
2021-08-25 20:12:52 r, 06.77m,0000165490Hz,0000000000c,0000000.000s, 029.3C,00002191
2021-08-25 20:22:49 r, 07.59m,0000078139Hz,0000000000c,0000000.000s, 029.0C,00002191
2021-08-25 20:32:49 r, 08.61m,0000030410Hz,0000000000c,0000000.000s, 028.0C,00002191
2021-08-25 20:42:50 r, 10.23m,0000006833Hz,0000000000c,0000000.000s, 027.3C,00002191
2021-08-25 20:52:49 r, 12.19m,0000001121Hz,0000000000c,0000000.000s, 026.7C,00002191
2021-08-25 21:02:49 r, 14.23m,0000000171Hz,0000000000c,0000000.000s, 026.4C,00002191
2021-08-25 21:12:50 r, 16.11m,0000000030Hz,0000015181c,0000000.033s, 026.1C,00002191
2021-08-25 21:22:49 r, 17.74m,0000000007Hz,0000068304c,0000000.148s, 025.4C,00002191
2021-08-25 21:32:49 r, 18.98m,0000000002Hz,0000214918c,0000000.466s, 025.4C,00002191
2021-08-25 21:42:50 r, 19.95m,0000000001Hz,0000521394c,0000001.131s, 025.1C,00002191
2021-08-25 21:52:49 r, 20.51m,0000000000Hz,0000867915c,0000001.883s, 024.8C,00002191
2021-08-25 22:02:49 r, 20.69m,0000000001Hz,0001020654c,0000002.215s, 024.8C,00002191
2021-08-25 22:12:52 r, 20.64m,0000000000Hz,0000974201c,0000002.114s, 024.4C,00002191
2021-08-25 22:22:50 r, 20.49m,0000000000Hz,0000850815c,0000001.846s, 024.1C,00002191
2021-08-25 22:32:50 r, 20.36m,0000000000Hz,0000757492c,0000001.644s, 023.8C,00002191
2021-08-25 22:42:50 r, 20.25m,0000000001Hz,0000681621c,0000001.479s, 023.2C,00002191
2021-08-25 22:52:51 r, 20.11m,0000000001Hz,0000604700c,0000001.312s, 022.8C,00002191
2021-08-25 23:02:49 r, 20.03m,0000000001Hz,0000557526c,0000001.210s, 022.5C,00002191
2021-08-25 23:12:51 r, 19.92m,0000000001Hz,0000504741c,0000001.095s, 022.2C,00002191
2021-08-25 23:22:50 r, 19.76m,0000000001Hz,0000440017c,0000000.955s, 022.2C,00002191
2021-08-25 23:32:49 r, 19.32m,0000000002Hz,0000292704c,0000000.635s, 021.9C,00002191
2021-08-25 23:42:50 r, 19.49m,0000000001Hz,0000343670c,0000000.746s, 021.9C,00002191
2021-08-25 23:52:52 r, 18.90m,0000000002Hz,0000197746c,0000000.429s, 022.2C,00002191
